This is the latest recevied weather packets stored in our database for station/object K8RRT. If no packets are shown the sender has not sent any weather packets the latest 10 day(s).
| Time | Temp. | Humidity | Pressure | Rain* | Wind** | Luminosity | Snow |
|---|---|---|---|---|---|---|---|
| 1788441956 | 27.78° C | 87% | 1014 hPa | 0 mm | - | 293 W/m² | - |
| 1788441650 | 27.78° C | 87% | 1014 hPa | 0 mm | - | 277 W/m² | - |
| 1788441350 | 27.78° C | 87% | 1014.1 hPa | 0 mm | - | 234 W/m² | - |
| 1788441057 | 27.22° C | 89% | 1014.4 hPa | 0 mm | - | 246 W/m² | - |
| 1788440744 | 26.67° C | 91% | 1014.3 hPa | 0 mm | - | 241 W/m² | - |
| 1788440439 | 26.11° C | 91% | 1014.3 hPa | 0 mm | - | 175 W/m² | - |
| 1788440137 | 25.56° C | 95% | 1014.3 hPa | 0 mm | - | 216 W/m² | - |
| 1788439833 | 25° C | 98% | 1014.3 hPa | 0 mm | - | 169 W/m² | - |
| 1788439532 | 24.44° C | 99% | 1014.1 hPa | 0 mm | - | 172 W/m² | - |
| 1788439227 | 23.89° C | 99% | 1014.3 hPa | 0 mm | - | 329 W/m² | - |
| 1788438921 | 23.33° C | 99% | 1014.5 hPa | 0 mm | - | 111 W/m² | - |
| 1788438620 | 23.33° C | 99% | 1014.6 hPa | 0 mm | - | 80 W/m² | - |
| 1788438320 | 23.33° C | 99% | 1014.6 hPa | 0 mm | - | 63 W/m² | - |
| 1788438019 | 23.33° C | 99% | 1014.4 hPa | 0 mm | - | 61 W/m² | - |
| 1788437714 | 23.89° C | 99% | 1014.3 hPa | 0 mm | - | 60 W/m² | - |
| 1788437410 | 23.33° C | 99% | 1014.4 hPa | 0 mm | - | 58 W/m² | - |
| 1788437108 | 22.78° C | 99% | 1014.3 hPa | 0 mm | - | 53 W/m² | - |
| 1788436803 | 22.78° C | 99% | 1014.4 hPa | 0 mm | - | 49 W/m² | - |
| 1788436501 | 22.78° C | 99% | 1014.1 hPa | 0 mm | - | 45 W/m² | - |
| 1788436196 | 22.78° C | 99% | 1014.4 hPa | 0 mm | - | 40 W/m² | - |
| 1788435891 | 22.78° C | 99% | 1014.3 hPa | 0 mm | - | 37 W/m² | - |
| 1788435587 | 22.22° C | 99% | 1014 hPa | 0 mm | - | 32 W/m² | - |
| 1788435283 | 22.22° C | 99% | 1014.1 hPa | 0 mm | - | 27 W/m² | - |
| 1788434978 | 22.22° C | 99% | 1013.8 hPa | 0 mm | - | 23 W/m² | - |
| 1788434674 | 21.67° C | 99% | 1014.1 hPa | 0 mm | - | 19 W/m² | - |
* Rain latest hour (hover to see other rain measurements)
** Current wind speed in m/s (hover to see current wind gust speed)